Hourly Data

Hourly Data Report for July 29, 2014

All times are specified in Local Standard Time (LST). Add 1 hour to adjust for Daylight Saving Time where and when it is observed.

Metadata including Station Name, Province, Latitude, Longitude, Elevation, Climate ID, WMO ID, TC ID
SASKATOON INTL A
SASKATCHEWAN
Latitude: 52°10'15.000" N Longitude: 106°42'00.000" W Elevation: 504.10 m
Climate ID: 4057152 WMO ID: 71866 TC ID: YXE
Hourly Data Report for July 29, 2014
Temp Definition
°C

Dew Point Temp Definition
°C

Rel Hum Definition
%

Wind Dir Definition
10's deg
Wind Spd Definition
km/h

Visibility Definition
km

Stn Press Definition
kPa

Hmdx Definition

Wind Chill Definition

Weather Definition

00:00 Legend Double Dagger 18.0 15.5 85 23 4 24.1 96.37 Clear
01:00 Legend Double Dagger 17.2 15.7 91 16 4 24.1 96.39 LegendNANA
02:00 Legend Double Dagger 16.3 15.5 95 36 3 24.1 96.37 LegendNANA
03:00 Legend Double Dagger 14.9 14.8 99 36 1 24.1 96.38 Clear
04:00 Legend Double Dagger 13.6 13.5 99 13 4 24.1 96.37 LegendNANA
05:00 Legend Double Dagger 14.4 14.3 99 15 4 24.1 96.39 LegendNANA
06:00 Legend Double Dagger 13.1 13.0 99 15 4 24.1 96.42 Clear
07:00 Legend Double Dagger 15.7 15.4 98 36 1 24.1 96.43 LegendNANA
08:00 Legend Double Dagger 18.4 16.2 87 20 3 24.1 96.44 LegendNANA
09:00 Legend Double Dagger 21.1 16.8 76 26 4 24.1 96.45 26 Clear
10:00 Legend Double Dagger 22.5 15.7 65 30 3 24.1 96.43 27 LegendNANA
11:00 Legend Double Dagger 24.9 15.7 56 29 4 24.1 96.42 29 LegendNANA
12:00 Legend Double Dagger 26.0 15.9 53 36 1 24.1 96.42 31 Clear
13:00 Legend Double Dagger 26.0 13.7 46 32 5 24.1 96.38 29 LegendNANA
14:00 Legend Double Dagger 26.6 14.2 46 31 7 24.1 96.35 30 LegendNANA
15:00 Legend Double Dagger 27.0 13.9 44 1 10 24.1 96.34 30 Clear
16:00 Legend Double Dagger 27.1 15.0 47 36 9 24.1 96.30 31 LegendNANA
17:00 Legend Double Dagger 27.1 15.4 48 3 10 24.1 96.27 31 LegendNANA
18:00 Legend Double Dagger 27.0 15.9 50 7 8 24.1 96.21 32 Mainly Clear
19:00 Legend Double Dagger 26.2 15.5 51 6 9 24.1 96.19 30 LegendNANA
20:00                    
21:00                    
22:00                    
23:00                    

Notes on Data Quality.

Legend
  • M = Missing
  • E = Estimated
  • NA = Not Available
  • ‡ = Partner data that is not subject to review by the National Climate Archives